Time,TemperatureF,DewpointF,PressureIn,WindDirection,WindDirectionDegrees,WindSpeedMPH,WindSpeedGustMPH,Humidity,HourlyPrecipIn,Conditions,Clouds,dailyrainin,SoftwareType,DateUTC
2013-04-20 00:12:00,73.5,72.0,29.96,WNW,286,0.0,-999.0,95,-99.99,,,0.00,weatherlink.com 1.10,2013-04-20 04:12:00,
2013-04-20 00:27:00,73.7,72.0,29.96,WNW,286,0.0,-999.0,95,-99.99,,,0.00,weatherlink.com 1.10,2013-04-20 04:27:00,
2013-04-20 00:42:00,73.9,72.0,29.96,WNW,286,0.0,-999.0,94,-99.99,,,0.00,weatherlink.com 1.10,2013-04-20 04:42:00,
2013-04-20 00:57:00,73.9,72.0,29.96,WNW,286,0.0,-999.0,94,-99.99,,,0.00,weatherlink.com 1.10,2013-04-20 04:57:00,
2013-04-20 01:12:00,73.5,72.0,29.95,WNW,286,0.0,-999.0,95,-99.99,,,0.00,weatherlink.com 1.10,2013-04-20 05:12:00,
2013-04-20 01:27:00,73.2,72.0,29.95,WNW,286,0.0,-999.0,96,-99.99,,,0.00,weatherlink.com 1.10,2013-04-20 05:27:00,
2013-04-20 01:42:00,73.1,72.0,29.95,WNW,286,0.0,-999.0,96,-99.99,,,0.00,weatherlink.com 1.10,2013-04-20 05:42:00,
2013-04-20 01:56:00,73.1,72.0,29.95,WNW,286,0.0,-999.0,96,-99.99,,,0.00,weatherlink.com 1.10,2013-04-20 05:56:00,
2013-04-20 02:12:00,72.5,71.0,29.94,WNW,286,0.0,-999.0,96,-99.99,,,0.00,weatherlink.com 1.10,2013-04-20 06:12:00,
2013-04-20 02:27:00,72.6,72.0,29.94,WNW,286,0.0,-999.0,97,-99.99,,,0.00,weatherlink.com 1.10,2013-04-20 06:27:00,
2013-04-20 02:42:00,72.8,72.0,29.93,West,281,0.0,-999.0,97,-99.99,,,0.00,weatherlink.com 1.10,2013-04-20 06:42:00,
2013-04-20 02:57:00,72.7,72.0,29.93,West,281,0.0,-999.0,96,-99.99,,,0.00,weatherlink.com 1.10,2013-04-20 06:57:00,
2013-04-20 03:12:00,72.7,72.0,29.93,West,279,0.0,-999.0,96,-99.99,,,0.00,weatherlink.com 1.10,2013-04-20 07:12:00,
2013-04-20 03:27:00,72.7,72.0,29.92,West,273,0.0,-999.0,97,-99.99,,,0.00,weatherlink.com 1.10,2013-04-20 07:27:00,
2013-04-20 03:42:00,72.5,72.0,29.93,West,261,0.0,-999.0,97,-99.99,,,0.00,weatherlink.com 1.10,2013-04-20 07:42:00,
2013-04-20 03:57:00,72.5,72.0,29.92,WSW,251,0.0,-999.0,97,-99.99,,,0.00,weatherlink.com 1.10,2013-04-20 07:57:00,
2013-04-20 04:12:00,72.6,72.0,29.92,WSW,251,0.0,-999.0,97,-99.99,,,0.00,weatherlink.com 1.10,2013-04-20 08:12:00,
2013-04-20 04:27:00,72.4,72.0,29.93,WSW,251,0.0,-999.0,97,-99.99,,,0.00,weatherlink.com 1.10,2013-04-20 08:27:00,
2013-04-20 04:42:00,72.4,72.0,29.92,WSW,251,0.0,-999.0,97,-99.99,,,0.00,weatherlink.com 1.10,2013-04-20 08:42:00,
2013-04-20 04:57:00,72.4,72.0,29.92,WSW,251,0.0,-999.0,97,-99.99,,,0.00,weatherlink.com 1.10,2013-04-20 08:57:00,
2013-04-20 05:12:00,72.8,72.0,29.92,WSW,258,0.0,-999.0,97,-99.99,,,0.06,weatherlink.com 1.10,2013-04-20 09:12:00,
2013-04-20 05:27:00,72.8,72.0,29.91,SW,223,1.0,-999.0,98,-99.99,,,0.07,weatherlink.com 1.10,2013-04-20 09:27:00,
2013-04-20 05:42:00,72.1,71.0,29.93,SSW,200,0.0,-999.0,97,-99.99,,,0.10,weatherlink.com 1.10,2013-04-20 09:42:00,
2013-04-20 05:57:00,71.1,70.0,29.93,SSW,193,0.0,-999.0,97,-99.99,,,0.28,weatherlink.com 1.10,2013-04-20 09:57:00,
2013-04-20 06:12:00,71.2,71.0,29.93,South,191,0.0,-999.0,98,-99.99,,,0.30,weatherlink.com 1.10,2013-04-20 10:12:00,
2013-04-20 06:27:00,71.5,71.0,29.93,SSW,192,0.0,-999.0,98,-99.99,,,0.30,weatherlink.com 1.10,2013-04-20 10:27:00,
2013-04-20 06:42:00,71.7,71.0,29.93,SSW,192,0.0,-999.0,98,-99.99,,,0.30,weatherlink.com 1.10,2013-04-20 10:42:00,
2013-04-20 06:57:00,71.8,71.0,29.93,SSW,192,0.0,-999.0,98,-99.99,,,0.30,weatherlink.com 1.10,2013-04-20 10:57:00,
2013-04-20 07:12:00,72.0,72.0,29.93,South,191,0.0,-999.0,99,-99.99,,,0.30,weatherlink.com 1.10,2013-04-20 11:12:00,
2013-04-20 07:27:00,72.7,72.0,29.94,South,191,0.0,-999.0,99,-99.99,,,0.30,weatherlink.com 1.10,2013-04-20 11:27:00,
2013-04-20 07:42:00,73.6,73.0,29.94,South,191,0.0,-999.0,99,-99.99,,,0.30,weatherlink.com 1.10,2013-04-20 11:42:00,
2013-04-20 07:57:00,73.8,74.0,29.95,SSW,192,0.0,-999.0,99,-99.99,,,0.30,weatherlink.com 1.10,2013-04-20 11:57:00,
2013-04-20 08:12:00,73.9,74.0,29.95,SSW,192,0.0,-999.0,99,-99.99,,,0.30,weatherlink.com 1.10,2013-04-20 12:12:00,
2013-04-20 08:27:00,73.6,73.0,29.95,SSW,192,0.0,-999.0,98,-99.99,,,0.30,weatherlink.com 1.10,2013-04-20 12:27:00,
2013-04-20 08:43:00,74.8,74.0,29.95,SSW,213,0.0,-999.0,97,-99.99,,,0.30,weatherlink.com 1.10,2013-04-20 12:43:00,
2013-04-20 08:58:00,75.4,74.0,29.95,SSW,213,0.0,-999.0,96,-99.99,,,0.30,weatherlink.com 1.10,2013-04-20 12:58:00,
2013-04-20 09:13:00,77.0,75.0,29.96,SSW,213,0.0,-999.0,94,-99.99,,,0.30,weatherlink.com 1.10,2013-04-20 13:13:00,
2013-04-20 09:28:00,78.7,76.0,29.95,SSW,212,0.0,-999.0,92,-99.99,,,0.30,weatherlink.com 1.10,2013-04-20 13:28:00,
2013-04-20 09:43:00,78.3,76.0,29.96,SW,229,4.0,-999.0,93,-99.99,,,0.30,weatherlink.com 1.10,2013-04-20 13:43:00,
2013-04-20 09:58:00,80.2,77.0,29.96,WNW,298,2.0,-999.0,89,-99.99,,,0.30,weatherlink.com 1.10,2013-04-20 13:58:00,
2013-04-20 10:13:00,76.5,72.0,29.97,North,355,13.0,-999.0,85,-99.99,,,0.30,weatherlink.com 1.10,2013-04-20 14:13:00,
2013-04-20 10:28:00,73.8,71.0,29.98,North,355,4.0,-999.0,90,-99.99,,,0.30,weatherlink.com 1.10,2013-04-20 14:28:00,
2013-04-20 10:42:00,74.2,71.0,30.00,NE,34,5.0,-999.0,88,-99.99,,,0.30,weatherlink.com 1.10,2013-04-20 14:42:00,
2013-04-20 10:57:00,75.4,71.0,30.00,NNE,14,4.0,-999.0,86,-99.99,,,0.30,weatherlink.com 1.10,2013-04-20 14:57:00,
2013-04-20 11:12:00,76.6,72.0,30.00,NNE,14,6.0,-999.0,84,-99.99,,,0.30,weatherlink.com 1.10,2013-04-20 15:12:00,
2013-04-20 11:27:00,75.7,71.0,30.01,NNE,18,5.0,-999.0,86,-99.99,,,0.30,weatherlink.com 1.10,2013-04-20 15:27:00,
2013-04-20 11:42:00,74.1,70.0,30.02,NE,38,9.0,-999.0,86,-99.99,,,0.30,weatherlink.com 1.10,2013-04-20 15:42:00,
2013-04-20 11:57:00,73.7,69.0,30.02,NNE,12,7.0,-999.0,86,-99.99,,,0.30,weatherlink.com 1.10,2013-04-20 15:57:00,
2013-04-20 12:13:00,73.5,70.0,30.02,North,9,2.0,-999.0,87,-99.99,,,0.30,weatherlink.com 1.10,2013-04-20 16:13:00,
2013-04-20 12:28:00,73.4,69.0,30.02,NNE,27,6.0,-999.0,86,-99.99,,,0.30,weatherlink.com 1.10,2013-04-20 16:28:00,
2013-04-20 12:43:00,74.4,70.0,30.02,North,355,17.0,-999.0,85,-99.99,,,0.30,weatherlink.com 1.10,2013-04-20 16:43:00,
2013-04-20 12:58:00,73.3,69.0,30.02,NE,34,7.0,-999.0,86,-99.99,,,0.30,weatherlink.com 1.10,2013-04-20 16:58:00,
2013-04-20 13:13:00,72.6,69.0,30.02,North,355,9.0,-999.0,87,-99.99,,,0.30,weatherlink.com 1.10,2013-04-20 17:13:00,
2013-04-20 13:28:00,72.3,69.0,30.02,North,11,13.0,-999.0,88,-99.99,,,0.30,weatherlink.com 1.10,2013-04-20 17:28:00,
2013-04-20 13:43:00,72.5,68.0,30.02,NE,46,4.0,-999.0,86,-99.99,,,0.30,weatherlink.com 1.10,2013-04-20 17:43:00,
2013-04-20 13:58:00,74.2,70.0,30.01,NNE,17,6.0,-999.0,86,-99.99,,,0.30,weatherlink.com 1.10,2013-04-20 17:58:00,
2013-04-20 14:13:00,72.9,69.0,30.00,NNE,24,10.0,-999.0,87,-99.99,,,0.30,weatherlink.com 1.10,2013-04-20 18:13:00,
2013-04-20 14:28:00,73.3,69.0,30.00,North,349,12.0,-999.0,87,-99.99,,,0.30,weatherlink.com 1.10,2013-04-20 18:28:00,
2013-04-20 14:43:00,73.5,69.0,29.99,NE,51,6.0,-999.0,85,-99.99,,,0.30,weatherlink.com 1.10,2013-04-20 18:43:00,
2013-04-20 14:58:00,73.2,69.0,29.99,NE,37,15.0,-999.0,85,-99.99,,,0.30,weatherlink.com 1.10,2013-04-20 18:58:00,
2013-04-20 15:13:00,71.9,68.0,29.99,NE,46,6.0,-999.0,87,-99.99,,,0.30,weatherlink.com 1.10,2013-04-20 19:13:00,
2013-04-20 15:28:00,71.9,68.0,29.98,NE,38,0.0,-999.0,88,-99.99,,,0.30,weatherlink.com 1.10,2013-04-20 19:28:00,
2013-04-20 15:43:00,72.7,68.0,29.98,NNE,23,9.0,-999.0,85,-99.99,,,0.30,weatherlink.com 1.10,2013-04-20 19:43:00,
2013-04-20 15:58:00,71.1,67.0,29.97,NE,40,5.0,-999.0,87,-99.99,,,0.30,weatherlink.com 1.10,2013-04-20 19:58:00,
2013-04-20 16:13:00,70.8,67.0,29.97,NE,34,10.0,-999.0,87,-99.99,,,0.30,weatherlink.com 1.10,2013-04-20 20:13:00,
2013-04-20 16:28:00,70.3,67.0,29.98,NE,40,8.0,-999.0,88,-99.99,,,0.30,weatherlink.com 1.10,2013-04-20 20:28:00,
2013-04-20 16:43:00,70.1,67.0,29.98,NNE,14,0.0,-999.0,88,-99.99,,,0.30,weatherlink.com 1.10,2013-04-20 20:43:00,
2013-04-20 16:58:00,69.5,66.0,29.99,NE,42,5.0,-999.0,89,-99.99,,,0.30,weatherlink.com 1.10,2013-04-20 20:58:00,
2013-04-20 17:13:00,69.9,66.0,29.99,NNE,22,0.0,-999.0,88,-99.99,,,0.30,weatherlink.com 1.10,2013-04-20 21:13:00,
2013-04-20 17:28:00,69.7,66.0,29.98,NNE,29,4.0,-999.0,88,-99.99,,,0.30,weatherlink.com 1.10,2013-04-20 21:28:00,
2013-04-20 17:43:00,68.9,66.0,29.97,North,9,11.0,-999.0,89,-99.99,,,0.30,weatherlink.com 1.10,2013-04-20 21:43:00,
2013-04-20 17:58:00,68.6,66.0,29.99,NNW,346,9.0,-999.0,91,-99.99,,,0.30,weatherlink.com 1.10,2013-04-20 21:58:00,
2013-04-20 18:13:00,67.8,66.0,30.00,NE,44,1.0,-999.0,92,-99.99,,,0.30,weatherlink.com 1.10,2013-04-20 22:13:00,
2013-04-20 18:28:00,67.9,66.0,29.99,ENE,71,7.0,-999.0,92,-99.99,,,0.30,weatherlink.com 1.10,2013-04-20 22:28:00,
2013-04-20 18:43:00,68.0,66.0,29.97,NNE,23,1.0,-999.0,93,-99.99,,,0.30,weatherlink.com 1.10,2013-04-20 22:43:00,
2013-04-20 18:58:00,68.4,66.0,29.99,North,5,4.0,-999.0,93,-99.99,,,0.30,weatherlink.com 1.10,2013-04-20 22:58:00,
2013-04-20 19:13:00,68.6,66.0,29.98,North,355,8.0,-999.0,92,-99.99,,,0.30,weatherlink.com 1.10,2013-04-20 23:13:00,
2013-04-20 19:28:00,68.6,66.0,29.99,NNE,32,6.0,-999.0,92,-99.99,,,0.30,weatherlink.com 1.10,2013-04-20 23:28:00,
2013-04-20 19:43:00,68.8,66.0,30.00,NNE,19,3.0,-999.0,92,-99.99,,,0.30,weatherlink.com 1.10,2013-04-20 23:43:00,
2013-04-20 19:58:00,68.6,66.0,30.00,North,5,0.0,-999.0,92,-99.99,,,0.30,weatherlink.com 1.10,2013-04-20 23:58:00,
2013-04-20 20:13:00,68.5,66.0,30.01,North,10,0.0,-999.0,91,-99.99,,,0.30,weatherlink.com 1.10,2013-04-21 00:13:00,
2013-04-20 20:28:00,68.4,66.0,30.01,NNE,15,0.0,-999.0,91,-99.99,,,0.30,weatherlink.com 1.10,2013-04-21 00:28:00,
2013-04-20 20:43:00,68.4,66.0,30.02,NE,34,5.0,-999.0,92,-99.99,,,0.30,weatherlink.com 1.10,2013-04-21 00:43:00,
2013-04-20 20:58:00,68.4,66.0,30.02,NNE,26,3.0,-999.0,91,-99.99,,,0.30,weatherlink.com 1.10,2013-04-21 00:58:00,
2013-04-20 21:13:00,68.5,66.0,30.02,North,360,2.0,-999.0,91,-99.99,,,0.30,weatherlink.com 1.10,2013-04-21 01:13:00,
2013-04-20 21:28:00,68.6,66.0,30.03,North,360,6.0,-999.0,92,-99.99,,,0.30,weatherlink.com 1.10,2013-04-21 01:28:00,
2013-04-20 21:43:00,68.7,66.0,30.03,North,355,1.0,-999.0,91,-99.99,,,0.30,weatherlink.com 1.10,2013-04-21 01:43:00,
2013-04-20 21:58:00,68.8,66.0,30.04,NNE,32,4.0,-999.0,92,-99.99,,,0.30,weatherlink.com 1.10,2013-04-21 01:58:00,
2013-04-20 22:13:00,69.0,67.0,30.03,NE,45,6.0,-999.0,92,-99.99,,,0.30,weatherlink.com 1.10,2013-04-21 02:13:00,
2013-04-20 22:28:00,69.0,66.0,30.05,North,355,6.0,-999.0,91,-99.99,,,0.30,weatherlink.com 1.10,2013-04-21 02:28:00,
2013-04-20 22:43:00,68.9,66.0,30.05,NNE,13,6.0,-999.0,91,-99.99,,,0.30,weatherlink.com 1.10,2013-04-21 02:43:00,
2013-04-20 22:58:00,69.0,66.0,30.05,NNE,30,4.0,-999.0,91,-99.99,,,0.30,weatherlink.com 1.10,2013-04-21 02:58:00,
2013-04-20 23:13:00,68.9,66.0,30.05,NNE,23,0.0,-999.0,91,-99.99,,,0.30,weatherlink.com 1.10,2013-04-21 03:13:00,
2013-04-20 23:28:00,68.9,67.0,30.05,NNE,28,4.0,-999.0,92,-99.99,,,0.30,weatherlink.com 1.10,2013-04-21 03:28:00,
2013-04-20 23:43:00,69.0,67.0,30.05,North,5,0.0,-999.0,92,-99.99,,,0.30,weatherlink.com 1.10,2013-04-21 03:43:00,
2013-04-20 23:58:00,69.1,67.0,30.06,NNE,27,4.0,-999.0,92,-99.99,,,0.30,weatherlink.com 1.10,2013-04-21 03:58:00,